Sant Hilari Sacalm-Els Cortals (La Selva)





Hora UTC 07:30
Temperatura 16.8 ºC
Humitat 82.0 %
Pressió 1007.0 hPa
Pluja 0.0 mm
Velocitat vent 3.2 km/h
Direcció vent E

Dades diàries 2024-05-30



Hora UTC (hivern +1h; estiu +2h)
Temperatura (ºC) Humitat (%) Pressió (hPa) Velocitat vent (km/h) Precipitació (mm)
Hora UTC Aire Humitat Pressió Vel. Dir. Vel. Max Dir. Intent. màx 5 min.
00:05 15.2 84.0 1009.4 0.0 SSE 0.0 0.0
00:10 15.2 84.0 1009.3 0.0 SSE 0.0 0.0
00:15 15.0 84.0 1009.2 0.0 SSE 0.0 0.0
00:20 15.0 84.0 1009.2 0.0 SSE 0.0 0.0
00:25 15.0 84.0 1009.2 0.0 SSE 0.0 0.0
00:30 15.0 84.0 1009.2 0.0 SSE 0.0 0.0
00:35 15.0 85.0 1009.2 0.0 SSE 0.0 0.0
00:40 15.0 85.0 1009.2 0.0 SSE 0.0 0.0
00:45 14.9 85.0 1009.2 0.0 SSE 0.0 0.0
00:50 14.8 85.0 1009.2 0.0 SSE 0.0 0.0
00:55 14.7 85.0 1009.1 0.0 SSE 0.0 0.0
01:00 14.7 85.0 1009.1 0.0 S 0.0 0.0
01:05 14.7 85.0 1008.9 0.0 S 0.0 0.0
01:10 14.7 85.0 1009.0 0.0 S 0.0 0.0
01:15 14.7 85.0 1008.9 0.0 S 0.0 0.0
01:20 14.7 85.0 1008.8 0.0 S 0.0 0.0
01:25 14.7 85.0 1008.9 0.0 S 0.0 0.0
01:30 14.7 85.0 1008.8 0.0 S 0.0 0.0
01:35 14.6 85.0 1008.7 0.0 S 0.0 0.0
01:40 14.6 85.0 1008.7 0.0 S 0.0 0.0
01:45 14.6 85.0 1008.6 0.0 S 0.0 0.0
01:50 14.6 85.0 1008.5 0.0 S 0.0 0.0
01:55 14.6 84.0 1008.5 0.0 S 0.0 0.0
02:00 14.7 84.0 1008.4 0.0 S 0.0 0.0
02:05 14.6 84.0 1008.3 0.0 S 0.0 0.0
02:10 14.6 84.0 1008.2 0.0 S 0.0 0.0
02:15 14.6 84.0 1008.3 0.0 S 0.0 0.0
02:20 14.4 84.0 1008.2 0.0 S 0.0 0.0
02:25 14.4 84.0 1008.0 0.0 S 0.0 0.0
02:30 14.4 84.0 1008.0 0.0 S 0.0 0.0
02:35 14.4 84.0 1007.9 0.0 S 0.0 0.0
02:40 14.3 84.0 1007.8 0.0 S 0.0 0.0
02:45 14.3 84.0 1007.8 0.0 S 0.0 0.0
02:50 14.2 85.0 1007.8 0.0 SSW 0.0 0.0
02:55 14.2 84.0 1007.7 0.0 SSW 0.0 0.0
03:00 14.1 84.0 1007.6 0.0 SSW 0.0 0.0
03:05 14.0 85.0 1007.7 0.0 SSW 0.0 0.0
03:10 14.0 85.0 1007.6 0.0 SSW 0.0 0.0
03:15 14.0 86.0 1007.5 0.0 SSW 0.0 0.0
03:20 14.0 86.0 1007.5 0.0 SSW 0.0 0.0
03:25 13.9 86.0 1007.3 0.0 SSW 0.0 0.0
03:30 13.9 86.0 1007.2 0.0 SSW 0.0 0.0
03:35 13.8 86.0 1007.2 0.0 SSW 0.0 0.0
03:40 13.8 87.0 1007.2 0.0 SSW 0.0 0.0
03:45 13.7 87.0 1007.1 0.0 SSW 0.0 0.0
03:50 13.6 87.0 1007.0 0.0 SSW 0.0 0.0
03:55 13.4 87.0 1006.9 0.0 SSW 0.0 0.0
04:00 13.4 88.0 1006.9 0.0 SSW 0.0 0.0
04:05 13.3 88.0 1006.7 0.0 SSW 0.0 0.0
04:10 13.3 88.0 1006.8 0.0 SSW 0.0 0.0
04:15 13.2 89.0 1006.7 0.0 SSW 0.0 0.0
04:20 13.2 89.0 1006.8 0.0 SSW 0.0 0.0
04:25 13.2 89.0 1006.8 0.0 SSW 0.0 0.0
04:30 13.1 89.0 1006.9 0.0 SSW 0.0 0.0
04:35 12.9 89.0 1006.8 0.0 SSW 0.0 0.0
04:40 12.9 90.0 1006.8 0.0 SSW 0.0 0.0
04:45 12.9 90.0 1006.8 0.0 SSW 0.0 0.0
04:50 13.0 90.0 1006.8 0.0 SSW 0.0 0.0
04:55 13.1 90.0 1006.9 0.0 SSW 0.0 0.0
05:00 13.2 91.0 1006.9 0.0 SSW 0.0 0.0
05:05 13.2 91.0 1006.8 0.0 SSW 0.0 0.0
05:10 13.3 91.0 1006.8 0.0 SSW 0.0 0.0
05:15 13.3 91.0 1006.8 0.0 SSW 0.0 0.0
05:20 13.3 91.0 1006.7 0.0 SSW 0.0 0.0
05:25 13.3 91.0 1006.7 0.0 SSW 0.0 0.0
05:30 13.4 91.0 1006.6 0.0 SSW 0.0 0.0
05:35 13.5 91.0 1006.7 0.0 SSW 0.0 0.0
05:40 13.7 91.0 1006.7 0.0 SSW 0.0 0.0
05:45 13.8 91.0 1006.7 0.0 SSW 0.0 0.0
05:50 14.2 91.0 1006.6 0.0 SSE 0.0 0.0
05:55 14.6 89.0 1006.7 0.0 SSE 0.0 0.0
06:00 14.7 88.0 1006.4 0.0 NE 0.0 0.0
06:05 14.8 87.0 1006.6 0.0 NE 0.0 0.0
06:10 15.0 87.0 1006.7 0.0 NE 0.0 0.0
06:15 15.0 86.0 1006.7 0.0 NE 0.0 0.0
06:20 15.0 85.0 1006.6 0.0 NE 0.0 0.0
06:25 15.1 85.0 1006.6 0.0 NE 0.0 0.0
06:30 15.2 85.0 1006.6 0.0 NE 0.0 0.0
06:35 15.3 84.0 1006.5 0.0 ENE 0.0 0.0
06:40 15.4 84.0 1006.6 0.0 ENE 0.0 0.0
06:45 15.6 83.0 1006.6 0.0 ENE 0.0 0.0
06:50 15.6 82.0 1006.6 0.0 ENE 0.0 0.0
06:55 15.8 82.0 1006.6 0.0 ENE 0.0 0.0
07:00 15.9 83.0 1006.6 0.0 ENE 0.0 0.0
07:05 16.1 82.0 1006.7 3.2 E 4.8 0.0
07:10 16.2 82.0 1006.9 3.2 E 8.0 0.0
07:15 16.2 82.0 1006.9 1.6 E 8.0 0.0
07:20 16.3 83.0 1007.0 0.0 ESE 4.8 0.0
07:25 16.6 83.0 1006.9 4.8 E 8.0 0.0
07:30 16.8 82.0 1007.0 3.2 E 9.7 0.0
Màxima 16.8 91.0 1009.4 4.8 E 9.7 0.0
Mínima 12.9 82.0 1006.4
Total 0.0